Regional Weather Roundup
Issued by NWS

Home | Current Version | Previous Version | Text Only | Print | Product List | Glossary On
Versions: 1 2 3 4 5 6 7 8 9 10 11 12 13 14 15 16 17 18 19 20 21 22 23 24 25 26 27 28 29 30 31 32 33 34 35 36 37 38 39 40 41 42 43 44 45 46 47 48 49 50
123
ASUS44 KLIX 300905
RWRLA
LOUISIANA WEATHER ROUNDUP
NATIONAL WEATHER SERVICE NEW ORLEANS LA
400 AM CDT TUE SEP 30 2014

NOTE: "FAIR" INDICATES FEW OR NO CLOUDS BELOW 12,000 FEET WITH NO
      SIGNIFICANT WEATHER AND/OR OBSTRUCTIONS TO VISIBILITY.
      SKY/WX - SKY CONDITION AND SIGNIFICANT WEATHER.
      TMP - AIR TEMPERATURE.    DP   - DEWPOINT TEMPERATURE.
      RH  - RELATIVE HUMIDITY.  PRES - PRESSURE.
      HX  - HEAT INDEX.         WCI  - WIND CHILL INDEX.

*  THESE STATIONS ARE NOT NWS OR FAA STATIONS AND ARE NOT UNDER
   NWS QUALITY CONTROL.

LAZ040-048-061>063-065-066-069-301000-
SOUTHEAST LOUISIANA

CITY           SKY/WX    TMP DP  RH WIND       PRES   REMARKS
N.O. AUDUBON   NOT AVBL
N.O. INTL ARPT PTCLDY    74  71  91 CALM      29.86F
N.O. LAKEFRONT CLEAR     78  73  84 NE7       29.87S
N.O. DOWNTOWN* FAIR      77  70  78 CALM      29.87S
SLIDELL        CLEAR     70  67  90 CALM      29.87S
BATON ROUGE    CLEAR     71  69  93 CALM      29.87S
BOOTHVILLE     CLEAR     77  74  90 CALM      29.85F
BELLE CHASSE   CLEAR     71  68  90 CALM      29.86S
BOGALUSA*        N/A     70  67  90 CALM      29.90S FOG
GALLIANO*      NOT AVBL
NEW ROADS*     FOG       70  69  98 CALM      29.88S VSB 3/4
GONZALES*      FAIR      70  70 100 CALM      29.87S FOG
HAMMOND*       CLEAR     70  68  94 CALM      29.89S
HOUMA*         CLEAR    N/A N/A N/A CALM      29.86S HAZE
PORT FOURCHON* SUNNY     77  73  88 CALM      29.89S

$$

LAZ041-044-053-054-301000-
SOUTHWEST LOUISIANA

CITY           SKY/WX    TMP DP  RH WIND       PRES   REMARKS
LAKE CHARLES   CLEAR     72  70  93 NE5       29.86S
LAFAYETTE      CLEAR     72  72 100 CALM      29.87S FOG
PATTERSON      CLEAR     70  68  94 CALM      29.89S
SALT POINT       N/A     76  74  93 CALM      29.86S
NEW IBERIA     FOG       72  70  93 CALM      29.88R VSB 1/2
CHENAULT AIRPK CLEAR     72  72  98 NE3       29.87S

$$

LAZ027-028-301000-
CENTRAL LOUISIANA

CITY           SKY/WX    TMP DP  RH WIND       PRES   REMARKS
FORT POLK      CLEAR     70  68  95 VRB1      29.87F
ALEXANDRIA INT CLEAR     69  67  93 CALM      29.86F
ALEXANDRIA     CLEAR     67  66  97 CALM      29.88S FOG

$$

LAZ001-002-301000-
NORTHWEST LOUISIANA

CITY           SKY/WX    TMP DP  RH WIND       PRES   REMARKS
SHREVEPORT     CLOUDY    72  65  78 CALM      29.89S
BARKSDALE AFB  CLOUDY    72  65  77 CALM      29.89F
DTN SHREVEPORT CLOUDY    71  66  84 CALM      29.89F

$$

LAZ014-016-301000-
NORTHEAST LOUISIANA

CITY           SKY/WX    TMP DP  RH WIND       PRES   REMARKS
MONROE         CLEAR     66  62  87 CALM      29.90S
TALLULAH       CLEAR     66  64  93 N3        29.89S

$$




USA.gov is the U.S. government's official web portal to all federal, state and local government web resources and services.